{"data":{"norad_id":48219,"intl_designator":"2021-031K","name":"ONEWEB-0183","alt_names":[],"object_type":"PAYLOAD","status":"ACTIVE","operator":null,"country":"UK","launch_date":"2021-04-25","launch_site_code":"VOSTO","launch_vehicle":null,"mission":null,"orbit_class":"UNKNOWN","rcs_meters":null,"size_class":null,"mass_kg":null,"dimensions":null,"purposes":["comms"],"wikipedia_slug":null,"has_3d_model":false,"image_url":null,"decayed_at":null,"tle_current":{"epoch":"2026-05-25T03:04:17.789952Z","epoch_age_seconds":70967,"freshness":"FRESH","line1":"1 48219U 21031K   26145.12798368 -.00000134  00000+0 -39663-3 0  9992","line2":"2 48219  87.8941 294.3038 0002019  99.7531 260.3827 13.14502226245294","mean_motion":13.14502226,"eccentricity":0.0002019,"inclination_deg":87.8941,"raan_deg":294.3038,"arg_perigee_deg":99.7531,"mean_anomaly_deg":260.3827,"bstar":-0.00039663,"rev_number":24529,"period_min":109.54717089996,"perigee_km":1204.2613670333,"apogee_km":1207.3237577906,"semimajor_km":7583.9295624119,"source":"CELESTRAK","updated_at":"2026-05-25T13:38:22.433802Z"}}}